Starlink 34330

operational
NORAD ID: 64227 Int'l Des: 2025-117 Owner: SPXS Country: US Constellation: starlink
LEOCIRCULAR

Starlink 34330について

説明を読み込み中...

リアルタイム位置

3D地球を読み込み中...

次回通過

高度履歴

Altitude vs Time

uPlot chart will show altitude changes over time

軌道要素

1 64227U 25117AA 25351.63634104 .00035395 00000-0 12015-2 0 9996
2 64227 53.1600 60.6810 0001502 54.4698 305.6443 15.30198736 31960
Epoch: Dec 17, 2025 • Age: 16 hours

現在のステータス

高度 478.8 km
速度 7.63 km/s
衛星直下点 -14.92°S, 143.92°W
打ち上げ日 May 31, 2025
運用期間 0.5 years
タイプ internet

技術仕様

分類 Payload
質量 575.00 kg
乾燥質量 530.00 kg
総質量 575.00 kg
長さ 0.30 m
直径 4.10 m
スパン 29.00 m
形状 Box + pan
製造者 SPXS
バスタイプ Starlink V2MO
フェーズステータス In Orbit
所有者/国 SPXS/US

大規模コンステレーション

Loading constellations...